Time[GMT],gps_lat[degrees_north](-3m),gps_lon[degrees_west](-3m),gps_2_lat[degrees_north](-3m),gps_2_lon[degrees_west](-3m)
2019-06-04 19:00,44.054931641,-68.996246338,44.06,-69.00
2019-06-04 20:00,44.054832458,-68.996315002,44.05,-69.00
2019-06-04 21:00,44.054901123,-68.996200562,44.05,-69.00
2019-06-04 22:00,44.055049896,-68.996246338,44.05,-69.00
2019-06-04 23:00,44.055217743,-68.996353149,44.06,-69.00
2019-06-05 00:00,44.055316925,-68.996330261,44.06,-69.00
2019-06-05 01:00,44.055450439,-68.996482849,44.06,-69.00
2019-06-05 02:00,44.055450439,-68.996650696,44.06,-69.00
2019-06-05 03:00,44.055416107,-68.996665955,44.06,-69.00
2019-06-05 04:00,44.055282593,-68.996734619,44.06,-69.00
2019-06-05 05:00,44.055316925,-68.996665955,44.06,-69.00
2019-06-05 06:00,44.055248260,-68.996597290,44.06,-69.00
2019-06-05 07:00,44.055133820,-68.996551514,44.06,-69.00
2019-06-05 08:00,44.054817200,-68.996269226,44.06,-69.00
2019-06-05 09:00,44.054767609,-68.996284485,44.05,-69.00
2019-06-05 10:00,44.054782867,-68.996398926,44.05,-69.00
2019-06-05 11:00,44.054851532,-68.996482849,44.05,-69.00
2019-06-05 12:00,44.054985046,-68.996597290,44.05,-69.00
2019-06-05 13:00,44.055267334,-68.996582031,44.05,-69.00
2019-06-05 14:00,44.055416107,-68.996696472,44.06,-69.00
2019-06-05 15:00,44.055332184,-68.996749878,44.06,-69.00
2019-06-05 16:00,44.055351257,-68.996734619,44.06,-69.00
2019-06-05 17:00,44.055301666,-68.996650696,44.06,-69.00
2019-06-05 18:00,44.055381775,-68.996620178,44.06,-69.00
2019-06-05 19:00,44.055198669,-68.996513367,44.06,-69.00
2019-06-05 20:00,44.054950714,-68.996414185,44.06,-69.00
2019-06-05 21:00,44.054866791,-68.996353149,44.05,-69.00
2019-06-05 22:00,44.054882050,-68.996398926,44.05,-69.00
2019-06-05 23:00,,,,
2019-06-06 00:00,44.055099487,-68.996498108,44.05,-69.00
2019-06-06 01:00,44.055183411,-68.996566772,44.06,-69.00
2019-06-06 02:00,44.055217743,-68.996582031,44.06,-69.00
2019-06-06 03:00,44.055233002,-68.996635437,44.06,-69.00
2019-06-06 04:00,44.055332184,-68.996780396,44.06,-69.00
2019-06-06 05:00,44.055301666,-68.996780396,44.06,-69.00
2019-06-06 06:00,44.055282593,-68.996749878,44.06,-69.00
2019-06-06 07:00,44.055099487,-68.996719360,44.06,-69.00
2019-06-06 08:00,44.054901123,-68.996620178,44.06,-69.00
2019-06-06 09:00,44.054748535,-68.996620178,44.05,-69.00
2019-06-06 10:00,44.054748535,-68.996551514,44.05,-69.00
2019-06-06 11:00,44.054748535,-68.996681213,44.05,-69.00
2019-06-06 12:00,44.054782867,-68.996734619,44.05,-69.00
2019-06-06 13:00,,,,
2019-06-06 14:00,44.055198669,-68.996749878,44.05,-69.00
2019-06-06 15:00,44.055416107,-68.996902466,44.06,-69.00
2019-06-06 16:00,44.055366516,-68.996917725,44.06,-69.00
2019-06-06 17:00,44.055366516,-68.996879578,44.06,-69.00
2019-06-06 18:00,44.055366516,-68.996765137,44.06,-69.00
2019-06-06 19:00,44.055248260,-68.996665955,44.06,-69.00
2019-06-06 20:00,44.055034637,-68.996650696,44.06,-69.00
2019-06-06 21:00,44.054615021,-68.996696472,44.06,-69.00
2019-06-06 22:00,44.054634094,-68.996650696,44.05,-69.00
2019-06-06 23:00,44.054599762,-68.996582031,44.05,-69.00
2019-06-07 00:00,44.054698944,-68.996665955,44.05,-69.00
2019-06-07 01:00,44.054916382,-68.996635437,44.05,-69.00
2019-06-07 02:00,44.055084229,-68.996719360,44.05,-69.00
2019-06-07 03:00,44.055118561,-68.996734619,44.06,-69.00
2019-06-07 04:00,44.055065155,-68.996696472,44.06,-69.00
2019-06-07 05:00,44.055015564,-68.996635437,44.06,-69.00
2019-06-07 06:00,44.054832458,-68.996551514,44.05,-69.00
2019-06-07 07:00,44.054668427,-68.996681213,44.05,-69.00
2019-06-07 08:00,44.054332733,-68.996681213,44.05,-69.00
2019-06-07 09:00,44.054267883,-68.996765137,44.05,-69.00
2019-06-07 10:00,44.054298401,-68.996780396,44.05,-69.00
2019-06-07 11:00,44.054351807,-68.996719360,44.05,-69.00
2019-06-07 12:00,44.054351807,-68.996681213,44.05,-69.00
2019-06-07 13:00,44.054466248,-68.996803284,44.05,-69.00
2019-06-07 14:00,44.054584503,-68.996803284,44.05,-69.00
2019-06-07 15:00,44.054832458,-68.996765137,44.05,-69.00
2019-06-07 16:00,44.054882050,-68.996749878,44.05,-69.00
2019-06-07 17:00,44.054866791,-68.996780396,44.05,-69.00
2019-06-07 18:00,44.054767609,-68.996818542,44.05,-69.00
2019-06-07 19:00,44.054718018,-68.996833801,44.05,-69.00
2019-06-07 20:00,44.054466248,-68.996696472,44.05,-69.00
2019-06-07 21:00,44.054401398,-68.996650696,44.05,-69.00
2019-06-07 22:00,44.054367065,-68.996681213,44.05,-69.00
2019-06-07 23:00,44.054367065,-68.996597290,44.05,-69.00
2019-06-08 00:00,44.054431915,-68.996734619,44.05,-69.00
2019-06-08 01:00,44.054550171,-68.996749878,44.05,-69.00
2019-06-08 02:00,44.054683685,-68.996566772,44.05,-69.00
2019-06-08 03:00,44.054634094,-68.996620178,44.05,-69.00
2019-06-08 04:00,44.055065155,-68.996734619,44.05,-69.00
2019-06-08 05:00,44.055015564,-68.996765137,44.06,-69.00
2019-06-08 06:00,44.054901123,-68.996803284,44.06,-69.00
2019-06-08 07:00,44.054718018,-68.996803284,44.05,-69.00
2019-06-08 08:00,44.054550171,-68.996879578,44.05,-69.00
2019-06-08 09:00,44.054367065,-68.996818542,44.05,-69.00
2019-06-08 10:00,44.054298401,-68.996734619,44.05,-69.00
2019-06-08 11:00,44.054332733,-68.996765137,44.05,-69.00
2019-06-08 12:00,44.054382324,-68.996749878,44.05,-69.00
2019-06-08 13:00,44.054431915,-68.996749878,44.05,-69.00
2019-06-08 14:00,44.054515839,-68.996849060,44.05,-69.00
2019-06-08 15:00,44.054698944,-68.996818542,44.05,-69.00
2019-06-08 16:00,44.054901123,-68.996803284,44.05,-69.00
2019-06-08 17:00,44.054901123,-68.996749878,44.05,-69.00
2019-06-08 18:00,44.055000305,-68.996734619,44.05,-69.00
2019-06-08 19:00,44.054866791,-68.996620178,44.05,-69.00
2019-06-08 20:00,44.054851532,-68.996650696,44.05,-69.00
2019-06-08 21:00,44.054634094,-68.996513367,44.05,-69.00
2019-06-08 22:00,44.054450989,-68.996536255,44.05,-69.00
2019-06-08 23:00,44.054416656,-68.996551514,44.05,-69.00
2019-06-09 00:00,44.054431915,-68.996536255,44.05,-69.00
2019-06-09 01:00,44.054534912,-68.996566772,44.05,-69.00
2019-06-09 02:00,44.054534912,-68.996566772,44.05,-69.00
2019-06-09 03:00,44.054634094,-68.996513367,44.05,-69.00
2019-06-09 04:00,44.054832458,-68.996620178,44.05,-69.00
2019-06-09 05:00,44.054985046,-68.996665955,44.05,-69.00
2019-06-09 06:00,44.054965973,-68.996719360,44.06,-69.00
2019-06-09 07:00,44.054798126,-68.996765137,44.05,-69.00
2019-06-09 08:00,44.054718018,-68.996681213,44.05,-69.00
2019-06-09 09:00,44.054634094,-68.996765137,44.05,-69.00
2019-06-09 10:00,44.054431915,-68.996765137,44.05,-69.00
2019-06-09 11:00,44.054382324,-68.996749878,44.05,-69.00
2019-06-09 12:00,44.054367065,-68.996719360,44.05,-69.00
2019-06-09 13:00,44.054450989,-68.996650696,44.05,-69.00
2019-06-09 14:00,44.054450989,-68.996765137,44.05,-69.00
2019-06-09 15:00,44.054515839,-68.996780396,44.05,-69.00
2019-06-09 16:00,44.054817200,-68.996681213,44.05,-69.00
2019-06-09 17:00,44.055084229,-68.996749878,44.05,-69.00
2019-06-09 18:00,44.055248260,-68.996818542,44.06,-69.00
2019-06-09 19:00,44.055233002,-68.996582031,44.06,-69.00
2019-06-09 20:00,44.055168152,-68.996566772,44.06,-69.00
2019-06-09 21:00,44.055065155,-68.996498108,44.06,-69.00
2019-06-09 22:00,44.054931641,-68.996330261,44.05,-69.00
2019-06-09 23:00,44.054866791,-68.996299744,44.05,-69.00
2019-06-10 00:00,44.054718018,-68.996383667,44.05,-69.00
2019-06-10 01:00,44.054767609,-68.996330261,44.05,-69.00
2019-06-10 02:00,44.054798126,-68.996368408,44.05,-69.00
2019-06-10 03:00,44.055034637,-68.996353149,44.05,-69.00
2019-06-10 04:00,44.055084229,-68.996383667,44.06,-69.00
2019-06-10 05:00,44.055217743,-68.996620178,44.06,-69.00
2019-06-10 06:00,44.055233002,-68.996620178,44.06,-69.00
2019-06-10 07:00,44.055282593,-68.996597290,44.06,-69.00
2019-06-10 08:00,44.055198669,-68.996635437,44.06,-69.00
2019-06-10 09:00,44.055118561,-68.996582031,44.06,-69.00
2019-06-10 10:00,44.055065155,-68.996620178,44.06,-69.00
2019-06-10 11:00,44.054985046,-68.996597290,44.06,-69.00
2019-06-10 12:00,44.054798126,-68.996452332,44.05,-69.00
2019-06-10 13:00,44.054866791,-68.996398926,44.05,-69.00
2019-06-10 14:00,44.054851532,-68.996437073,44.05,-69.00
2019-06-10 15:00,44.054985046,-68.996482849,44.05,-69.00
2019-06-10 16:00,44.055149078,-68.996452332,44.06,-69.00
2019-06-10 17:00,44.055198669,-68.996467590,44.06,-69.00
2019-06-10 18:00,44.055282593,-68.996650696,44.06,-69.00
2019-06-10 19:00,44.055248260,-68.996635437,44.06,-69.00
2019-06-10 20:00,44.055233002,-68.996749878,44.06,-69.00
2019-06-10 21:00,44.055183411,-68.996917725,44.06,-69.00
2019-06-10 22:00,44.055118561,-68.996879578,44.06,-69.00
2019-06-10 23:00,44.055065155,-68.996833801,44.06,-69.00
2019-06-11 00:00,44.054901123,-68.996803284,44.06,-69.00
2019-06-11 01:00,44.054832458,-68.996696472,44.05,-69.00
2019-06-11 02:00,44.054832458,-68.996650696,44.05,-69.00
2019-06-11 03:00,44.054851532,-68.996650696,44.05,-69.00
2019-06-11 04:00,44.054901123,-68.996681213,44.05,-69.00
2019-06-11 05:00,44.055034637,-68.996719360,44.05,-69.00
2019-06-11 06:00,44.055217743,-68.996734619,44.06,-69.00
2019-06-11 07:00,44.055267334,-68.996734619,44.06,-69.00
2019-06-11 08:00,44.055416107,-68.996948242,44.06,-69.00
2019-06-11 09:00,44.055332184,-68.996879578,44.06,-69.00
2019-06-11 10:00,44.055351257,-68.996849060,44.06,-69.00
2019-06-11 11:00,44.055282593,-68.996902466,44.06,-69.00
2019-06-11 12:00,44.055168152,-68.996948242,44.06,-69.00
2019-06-11 13:00,44.054985046,-68.996765137,44.06,-69.00
2019-06-11 14:00,44.054985046,-68.996986389,44.05,-69.00
2019-06-11 15:00,44.055183411,-68.997016907,44.06,-69.00
2019-06-11 16:00,44.055168152,-68.996803284,44.06,-69.00
2019-06-11 17:00,44.055233002,-68.996780396,44.06,-69.00
2019-06-11 18:00,,,,
2019-06-11 19:00,44.055351257,-68.996780396,44.06,-69.00
2019-06-11 20:00,,,,
2019-06-11 21:00,44.055267334,-68.996833801,44.06,-69.00
2019-06-11 22:00,44.055133820,-68.996879578,44.06,-69.00
2019-06-11 23:00,44.054733276,-68.996437073,44.06,-69.00
2019-06-12 00:00,44.054683685,-68.996536255,44.05,-69.00
2019-06-12 01:00,44.054668427,-68.996597290,44.05,-69.00
2019-06-12 02:00,44.054401398,-68.996551514,44.05,-69.00
2019-06-12 03:00,44.054416656,-68.996536255,44.05,-69.00
2019-06-12 04:00,44.054401398,-68.996482849,44.05,-69.00
2019-06-12 05:00,44.054450989,-68.996597290,44.05,-69.00
2019-06-12 06:00,44.054515839,-68.996650696,44.05,-69.00
2019-06-12 07:00,44.054767609,-68.996650696,44.05,-69.00
2019-06-12 08:00,44.055049896,-68.996765137,44.05,-69.00
2019-06-12 09:00,44.055118561,-68.996749878,44.06,-69.00
2019-06-12 10:00,44.055217743,-68.996780396,44.06,-69.00
2019-06-12 11:00,44.055198669,-68.996734619,44.06,-69.00
2019-06-12 12:00,44.055118561,-68.996635437,44.06,-69.00
2019-06-12 13:00,44.054565430,-68.996551514,44.06,-69.00
2019-06-12 14:00,44.054351807,-68.996482849,44.05,-69.00
2019-06-12 15:00,44.054382324,-68.996498108,44.05,-69.00
2019-06-12 16:00,44.054466248,-68.996551514,44.05,-69.00
2019-06-12 17:00,44.054515839,-68.996536255,44.05,-69.00
2019-06-12 18:00,44.054649353,-68.996620178,44.05,-69.00
2019-06-12 19:00,44.054901123,-68.996452332,44.05,-69.00
2019-06-12 20:00,44.055233002,-68.996467590,44.05,-69.00
2019-06-12 21:00,44.055316925,-68.996513367,44.06,-69.00
2019-06-12 22:00,44.055248260,-68.996482849,44.06,-69.00
2019-06-12 23:00,44.055198669,-68.996383667,44.06,-69.00
2019-06-13 00:00,44.055034637,-68.996353149,44.06,-69.00
2019-06-13 01:00,44.054866791,-68.996284485,44.06,-69.00
2019-06-13 02:00,44.054718018,-68.996398926,44.05,-69.00
2019-06-13 03:00,44.054550171,-68.996368408,44.05,-69.00
2019-06-13 04:00,44.054550171,-68.996414185,44.05,-69.00
2019-06-13 05:00,44.054615021,-68.996467590,44.05,-69.00
2019-06-13 06:00,44.054698944,-68.996635437,44.05,-69.00
2019-06-13 07:00,44.054817200,-68.996665955,44.05,-69.00
2019-06-13 08:00,44.054985046,-68.996665955,44.05,-69.00
2019-06-13 09:00,44.055149078,-68.996696472,44.06,-69.00
2019-06-13 10:00,44.055198669,-68.996635437,44.06,-69.00
2019-06-13 11:00,44.055084229,-68.996719360,44.06,-69.00
2019-06-13 12:00,44.055034637,-68.996551514,44.06,-69.00
2019-06-13 13:00,44.054916382,-68.996566772,44.06,-69.00
2019-06-13 14:00,44.054748535,-68.996467590,44.05,-69.00
2019-06-13 15:00,44.054634094,-68.996482849,44.05,-69.00
2019-06-13 16:00,44.054584503,-68.996513367,44.05,-69.00
2019-06-13 17:00,44.054634094,-68.996551514,44.05,-69.00
2019-06-13 18:00,44.054698944,-68.996665955,44.05,-69.00
2019-06-13 20:00,44.054851532,-68.996833801,44.05,-69.00
2019-06-13 21:00,44.055198669,-68.997253418,44.05,-69.00
2019-06-13 22:00,44.055301666,-68.997085571,44.06,-69.00
2019-06-13 23:00,,,,
2019-06-14 00:00,44.055515289,-68.997520447,44.06,-69.00
2019-06-14 01:00,44.055515289,-68.997329712,44.06,-69.00
2019-06-14 02:00,44.055366516,-68.996879578,44.06,-69.00
2019-06-14 03:00,44.055015564,-68.996902466,44.06,-69.00
2019-06-14 04:00,44.054649353,-68.996665955,44.06,-69.00
2019-06-14 05:00,44.054481506,-68.996665955,44.05,-69.00
2019-06-14 06:00,44.054431915,-68.996681213,44.05,-69.00
2019-06-14 07:00,44.054481506,-68.996719360,44.05,-69.00
2019-06-14 08:00,44.054634094,-68.996696472,44.05,-69.00
2019-06-14 09:00,44.054916382,-68.996681213,44.05,-69.00
2019-06-14 10:00,44.055198669,-68.996765137,44.05,-69.00
2019-06-14 11:00,44.055248260,-68.996719360,44.06,-69.00
2019-06-14 12:00,44.055198669,-68.996635437,44.06,-69.00
2019-06-14 13:00,44.055034637,-68.996681213,44.06,-69.00
2019-06-14 14:00,44.054916382,-68.996780396,44.06,-69.00
2019-06-14 15:00,44.054767609,-68.996849060,44.05,-69.00
2019-06-14 16:00,44.054550171,-68.996635437,44.05,-69.00
2019-06-14 17:00,44.054550171,-68.996566772,44.05,-69.00
2019-06-14 18:00,44.054649353,-68.996566772,44.05,-69.00
2019-06-14 19:00,44.054817200,-68.996536255,44.05,-69.00
2019-06-14 20:00,44.054882050,-68.996665955,44.05,-69.00
2019-06-14 21:00,44.055034637,-68.996665955,44.05,-69.00
2019-06-14 22:00,44.055282593,-68.996650696,44.06,-69.00
2019-06-14 23:00,44.055381775,-68.996780396,44.06,-69.00
2019-06-15 00:00,44.055332184,-68.996879578,44.06,-69.00
2019-06-15 01:00,44.055233002,-68.996948242,44.06,-69.00
2019-06-15 02:00,44.055198669,-68.996833801,44.06,-69.00
2019-06-15 03:00,44.055065155,-68.996803284,44.06,-69.00
2019-06-15 04:00,44.054798126,-68.996665955,44.06,-69.00
2019-06-15 05:00,44.054683685,-68.996635437,44.05,-69.00
2019-06-15 06:00,44.054534912,-68.996566772,44.05,-69.00
2019-06-15 07:00,44.054649353,-68.996498108,44.05,-69.00
2019-06-15 08:00,44.054683685,-68.996597290,44.05,-69.00
2019-06-15 09:00,44.054916382,-68.996582031,44.05,-69.00
2019-06-15 10:00,44.055065155,-68.996650696,44.05,-69.00
2019-06-15 11:00,44.055183411,-68.996696472,44.06,-69.00
2019-06-15 12:00,44.055183411,-68.996681213,44.06,-69.00
2019-06-15 13:00,44.055084229,-68.996780396,44.06,-69.00
2019-06-15 14:00,44.055065155,-68.996833801,44.06,-69.00
2019-06-15 15:00,44.055065155,-68.996749878,44.06,-69.00
2019-06-15 16:00,44.055034637,-68.996551514,44.06,-69.00
2019-06-15 17:00,44.054817200,-68.996353149,44.06,-69.00
2019-06-15 18:00,44.054782867,-68.996383667,44.05,-69.00
2019-06-15 19:00,44.054798126,-68.996368408,44.05,-69.00
2019-06-15 20:00,44.054931641,-68.996414185,44.05,-69.00
2019-06-15 21:00,44.055099487,-68.996467590,44.05,-69.00
2019-06-15 22:00,44.055267334,-68.996536255,44.06,-69.00
2019-06-15 23:00,44.055500031,-68.996551514,44.06,-69.00
2019-06-16 00:00,44.055564880,-68.996696472,44.06,-69.00
2019-06-16 01:00,44.055515289,-68.996650696,44.06,-69.00
2019-06-16 02:00,44.055381775,-68.996620178,44.06,-69.00
2019-06-16 03:00,44.055351257,-68.996597290,44.06,-69.00
2019-06-16 04:00,44.055316925,-68.996398926,44.06,-69.00
2019-06-16 05:00,44.055168152,-68.996284485,44.06,-69.00
2019-06-16 06:00,44.055000305,-68.996299744,44.06,-69.00
2019-06-16 07:00,44.055015564,-68.996231079,44.05,-69.00
2019-06-16 08:00,44.054931641,-68.996284485,44.06,-69.00
2019-06-16 09:00,44.055133820,-68.996398926,44.05,-69.00
2019-06-16 10:00,44.055301666,-68.996437073,44.06,-69.00
2019-06-16 11:00,44.055435181,-68.996566772,44.06,-69.00
2019-06-16 12:00,44.055484772,-68.996696472,44.06,-69.00
2019-06-16 13:00,44.055500031,-68.996818542,44.06,-69.00
2019-06-16 14:00,44.055465698,-68.996833801,44.06,-69.00
2019-06-16 15:00,44.055400848,-68.996849060,44.06,-69.00
2019-06-16 16:00,44.055282593,-68.996818542,44.06,-69.00
2019-06-16 17:00,44.055217743,-68.996749878,44.06,-69.00
2019-06-16 18:00,44.055118561,-68.996665955,44.06,-69.00
2019-06-16 19:00,44.055149078,-68.996513367,44.06,-69.00
2019-06-16 20:00,44.055233002,-68.996398926,44.06,-69.00
2019-06-16 21:00,44.055301666,-68.996513367,44.06,-69.00
2019-06-16 22:00,44.055351257,-68.996582031,44.06,-69.00
2019-06-16 23:00,44.055435181,-68.996635437,44.06,-69.00
2019-06-17 00:00,44.055484772,-68.996696472,44.06,-69.00
2019-06-17 01:00,44.055500031,-68.996696472,44.06,-69.00
2019-06-17 02:00,44.055416107,-68.996803284,44.06,-69.00
2019-06-17 03:00,44.055351257,-68.996803284,44.06,-69.00
2019-06-17 04:00,44.055332184,-68.996696472,44.06,-69.00
2019-06-17 05:00,44.055217743,-68.996719360,44.06,-69.00
2019-06-17 06:00,44.055034637,-68.996665955,44.06,-69.00
2019-06-17 07:00,44.054931641,-68.996582031,44.06,-69.00
2019-06-17 08:00,44.054950714,-68.996551514,44.05,-69.00
2019-06-17 09:00,44.054931641,-68.996665955,44.05,-69.00
2019-06-17 10:00,44.054931641,-68.996681213,44.05,-69.00
2019-06-17 11:00,44.055149078,-68.996734619,44.05,-69.00
2019-06-17 12:00,44.055416107,-68.996833801,44.06,-69.00
2019-06-17 13:00,44.055400848,-68.996765137,44.06,-69.00
2019-06-17 14:00,44.055381775,-68.996917725,44.06,-69.00
2019-06-17 15:00,44.055381775,-68.996864319,44.06,-69.00
2019-06-17 16:00,44.055332184,-68.996864319,44.06,-69.00
2019-06-17 17:00,44.055332184,-68.996818542,44.06,-69.00
2019-06-17 18:00,44.055267334,-68.996650696,44.06,-69.00
2019-06-17 19:00,44.055034637,-68.996498108,44.06,-69.00
2019-06-17 20:00,44.054832458,-68.996299744,44.06,-69.00
2019-06-17 21:00,44.054832458,-68.996368408,44.05,-69.00
2019-06-17 22:00,44.054882050,-68.996398926,44.05,-69.00
2019-06-17 23:00,44.055084229,-68.996467590,44.05,-69.00
2019-06-18 00:00,44.055366516,-68.996536255,44.06,-69.00
2019-06-18 01:00,44.055381775,-68.996650696,44.06,-69.00
2019-06-18 02:00,44.055366516,-68.996650696,44.06,-69.00
2019-06-18 03:00,44.055267334,-68.996696472,44.06,-69.00
2019-06-18 04:00,44.055149078,-68.996734619,44.06,-69.00
2019-06-18 05:00,44.054965973,-68.996665955,44.06,-69.00
2019-06-18 06:00,44.054866791,-68.996719360,44.05,-69.00
2019-06-18 07:00,44.054748535,-68.996681213,44.05,-69.00
2019-06-18 08:00,44.054733276,-68.996681213,44.05,-69.00
2019-06-18 09:00,44.054832458,-68.996597290,44.05,-69.00
2019-06-18 10:00,44.054817200,-68.996635437,44.05,-69.00
2019-06-18 11:00,44.054866791,-68.996780396,44.05,-69.00
2019-06-18 12:00,44.055084229,-68.996734619,44.05,-69.00
2019-06-18 13:00,44.055233002,-68.996749878,44.06,-69.00
2019-06-18 14:00,44.055233002,-68.996780396,44.06,-69.00
2019-06-18 15:00,44.055217743,-68.996765137,44.06,-69.00
2019-06-18 16:00,44.054931641,-68.996650696,44.06,-69.00
2019-06-18 17:00,44.054832458,-68.996650696,44.05,-69.00
2019-06-18 18:00,44.054798126,-68.996696472,44.05,-69.00
2019-06-18 19:00,44.054698944,-68.996620178,44.05,-69.00
2019-06-18 20:00,44.054748535,-68.996620178,44.05,-69.00
2019-06-18 21:00,44.054748535,-68.996665955,44.05,-69.00
2019-06-18 22:00,44.054798126,-68.996635437,44.05,-69.00
2019-06-18 23:00,44.054832458,-68.996734619,44.05,-69.00
2019-06-19 00:00,44.055065155,-68.996681213,44.05,-69.00
2019-06-19 01:00,44.055282593,-68.996749878,44.06,-69.00
2019-06-19 02:00,44.055450439,-68.996719360,44.06,-69.00
2019-06-19 03:00,44.055381775,-68.996719360,44.06,-69.00
2019-06-19 04:00,44.055267334,-68.996681213,44.06,-69.00
2019-06-19 05:00,44.055168152,-68.996665955,44.06,-69.00
2019-06-19 06:00,44.055034637,-68.996681213,44.05,-69.00
2019-06-19 07:00,44.054748535,-68.996719360,44.06,-69.00
2019-06-19 08:00,44.054668427,-68.996696472,44.05,-69.00
2019-06-19 09:00,44.054718018,-68.996681213,44.05,-69.00
2019-06-19 10:00,44.054767609,-68.996650696,44.05,-69.00
2019-06-19 11:00,44.054817200,-68.996765137,44.05,-69.00
2019-06-19 12:00,44.054965973,-68.996765137,44.05,-69.00
2019-06-19 13:00,44.055168152,-68.996765137,44.05,-69.00
2019-06-19 14:00,44.055301666,-68.996749878,44.06,-69.00
2019-06-19 15:00,44.055267334,-68.996749878,44.06,-69.00
2019-06-19 16:00,44.055217743,-68.996719360,44.06,-69.00
2019-06-19 17:00,44.055149078,-68.996734619,44.06,-69.00
2019-06-19 18:00,44.055099487,-68.996818542,44.06,-69.00
2019-06-19 19:00,44.055015564,-68.996696472,44.06,-69.00
2019-06-19 20:00,44.054916382,-68.996597290,44.05,-69.00
2019-06-19 21:00,44.054901123,-68.996566772,44.05,-69.00
2019-06-19 22:00,44.054866791,-68.996513367,44.05,-69.00
2019-06-19 23:00,44.054965973,-68.996650696,44.05,-69.00
2019-06-20 00:00,44.055065155,-68.996749878,44.05,-69.00
2019-06-20 01:00,44.055183411,-68.996681213,44.06,-69.00
2019-06-20 02:00,44.055248260,-68.996681213,44.06,-69.00
2019-06-20 03:00,44.055282593,-68.996719360,44.06,-69.00
2019-06-20 04:00,44.055183411,-68.996803284,44.06,-69.00
2019-06-20 05:00,44.055084229,-68.996803284,44.06,-69.00
2019-06-20 06:00,44.055065155,-68.996803284,44.06,-69.00
2019-06-20 07:00,44.055034637,-68.996765137,44.06,-69.00
2019-06-20 08:00,44.054798126,-68.996665955,44.06,-69.00
2019-06-20 09:00,44.054832458,-68.996696472,44.05,-69.00
2019-06-20 10:00,44.054798126,-68.996665955,44.05,-69.00
2019-06-20 11:00,44.054851532,-68.996765137,44.05,-69.00
2019-06-20 12:00,44.054931641,-68.996765137,44.05,-69.00
2019-06-20 13:00,,,,
2019-06-20 14:00,44.055267334,-68.996803284,44.06,-69.00
2019-06-20 15:00,44.055332184,-68.996833801,44.06,-69.00
2019-06-20 16:00,44.055248260,-68.996803284,44.06,-69.00
2019-06-20 17:00,44.055149078,-68.996803284,44.06,-69.00
2019-06-20 18:00,44.055118561,-68.996879578,44.06,-69.00
2019-06-20 19:00,44.055084229,-68.996917725,44.06,-69.00
2019-06-20 20:00,44.054985046,-68.996818542,44.05,-69.00
2019-06-20 21:00,44.054832458,-68.996765137,44.05,-69.00
2019-06-20 22:00,44.054882050,-68.996986389,44.05,-69.00
2019-06-20 23:00,44.055015564,-68.997070312,44.05,-69.00
2019-06-21 00:00,44.055015564,-68.997032166,44.05,-69.00
2019-06-21 01:00,44.055065155,-68.996986389,44.06,-69.00
2019-06-21 02:00,44.055332184,-68.996948242,44.06,-69.00
2019-06-21 03:00,44.055416107,-68.996917725,44.06,-69.00
2019-06-21 04:00,44.055381775,-68.996719360,44.06,-69.00
2019-06-21 05:00,44.055351257,-68.996665955,44.06,-69.00
2019-06-21 06:00,44.055217743,-68.996635437,44.06,-69.00
2019-06-21 07:00,44.055034637,-68.996696472,44.06,-69.00
2019-06-21 08:00,44.054832458,-68.996635437,44.06,-69.00
2019-06-21 09:00,44.054798126,-68.996635437,44.05,-69.00
2019-06-21 10:00,,,,
2019-06-21 11:00,44.054683685,-68.996849060,44.05,-69.00
2019-06-21 12:00,44.054718018,-68.996765137,44.05,-69.00
2019-06-21 13:00,44.054698944,-68.996818542,44.05,-69.00
2019-06-21 14:00,44.054782867,-68.996864319,44.05,-69.00
2019-06-21 15:00,44.055015564,-68.996986389,44.05,-69.00
2019-06-21 16:00,44.055233002,-68.997047424,44.06,-69.00
2019-06-21 17:00,,,,
2019-06-21 18:00,44.055217743,-68.996849060,44.06,-69.00
2019-06-21 19:00,44.055084229,-68.996803284,44.06,-69.00
2019-06-21 20:00,44.054931641,-68.996749878,44.06,-69.00
2019-06-21 21:00,,,,
2019-06-21 22:00,44.054351807,-68.996665955,44.05,-69.00
2019-06-21 23:00,44.054382324,-68.996696472,44.05,-69.00
2019-06-22 00:00,44.054401398,-68.996620178,44.05,-69.00
2019-06-22 01:00,44.054382324,-68.996681213,44.05,-69.00
2019-06-22 02:00,44.054466248,-68.996681213,44.05,-69.00
2019-06-22 03:00,44.054698944,-68.996749878,44.05,-69.00
2019-06-22 04:00,44.054817200,-68.996803284,44.05,-69.00